Weather History for Robinson, IL

Change the Weather History Date:

Saturday, March 2, 2013

  Actual Average (KLWV) Record (KLWV)
Temperature  
Mean Temperature 30 °F 40 °F  
Max Temperature 34 °F 50 °F 73 °F (2012)
Min Temperature 27 °F 31 °F 13 °F (2014)
Degree Days  
Heating Degree Days 34 25  
Month to date heating degree days 50  
Since 1 July heating degree days 3725  
Cooling Degree Days 0 0  
Month to date cooling degree days 0  
Year to date cooling degree days 0  
Moisture  
Dew Point 25 °F    
Average Humidity 79    
Maximum Humidity 85    
Minimum Humidity 71    
Precipitation  
Precipitation 0.00 in 0.08 in 1.24 in (1972)
Month to date precipitation 0.17  
Year to date precipitation 4.56  
Sea Level Pressure  
Sea Level Pressure 30.15 in    
Wind  
Wind Speed 10 mph (NW)    
Max Wind Speed 14 mph    
Max Gust Speed 18 mph    
Visibility 9 miles    
Events Snow    
T = Trace of Precipitation, MM = Missing Value Source: NWS Daily Summary

Daily Weather History Graph

Daily Weather History Graph

Search for Another Location

Airport:

Trip Planner

Search our weather history database for the weather conditions in past years. The results will help you decide how hot, cold, wet, or windy it might be!

Date:

Astronomy

Mar. 02, 2013 Rise Set
Actual Time 6:21 AM CST 5:44 PM CST
Civil Twilight 5:54 AM CST 6:11 PM CST
Nautical Twilight 5:23 AM CST 6:42 PM CST
Astronomical Twilight 4:52 AM CST 7:13 PM CST
Moon 11:20 PM CST (3/2) 8:52 AM CST (3/2)
Length of Visible Light 12h 16m
Length of Day
11h 23m
Waning Gibbous, 74% of the Moon is Illuminated
Mar 2
Waning Gibbous
Mar 4
Last Quarter
Mar 11
New
Mar 19
First Quarter
Mar 27
Full

Hourly Weather History & Observations

Time (CST) Temp. Windchill Dew Point Humidity Pressure Visibility Wind Dir Wind Speed Gust Speed Precip Events Conditions
12:15 AM 32.5 °F 23.2 °F 28.0 °F 83% 30.11 in 10.0 mi NNW 12.7 mph 17.3 mph N/A   Overcast
12:35 AM 32.4 °F 23.0 °F 27.5 °F 82% 30.12 in 10.0 mi NNW 12.7 mph 16.1 mph N/A   Overcast
12:55 AM 32.2 °F 23.2 °F 27.1 °F 82% 30.12 in 10.0 mi NNW 11.5 mph 18.4 mph N/A   Overcast
1:35 AM 32.0 °F 22.5 °F 27.1 °F 82% 30.12 in 10.0 mi NNW 12.7 mph - N/A   Overcast
1:55 AM 32.0 °F 23.6 °F 26.6 °F 80% 30.12 in 10.0 mi NNW 10.4 mph - N/A   Overcast
2:15 AM 32.0 °F 24.8 °F 27.1 °F 82% 30.11 in 10.0 mi NNW 8.1 mph - N/A   Overcast
2:35 AM 32.0 °F 24.2 °F 27.5 °F 83% 30.11 in 10.0 mi NNW 9.2 mph - N/A Snow Light Snow
2:55 AM 32.0 °F 24.8 °F 27.9 °F 85% 30.11 in 10.0 mi NW 8.1 mph - N/A   Overcast
3:35 AM 32.0 °F 24.2 °F 26.6 °F 80% 30.11 in 10.0 mi NW 9.2 mph - N/A   Overcast
3:55 AM 31.6 °F 22.6 °F 26.4 °F 81% 30.11 in 10.0 mi NW 11.5 mph 16.1 mph N/A   Overcast
4:15 AM 31.6 °F 23.7 °F 26.4 °F 81% 30.11 in 10.0 mi NNW 9.2 mph - N/A   Overcast
4:35 AM 31.3 °F 21.1 °F 25.7 °F 80% 30.11 in 10.0 mi NNW 13.8 mph - N/A   Overcast
4:55 AM 31.1 °F 22.4 °F 25.5 °F 80% 30.12 in 10.0 mi NW 10.4 mph - N/A   Overcast
5:15 AM 31.1 °F 25.4 °F 25.5 °F 80% 30.12 in 10.0 mi NW 5.8 mph - N/A   Overcast
5:35 AM 31.1 °F 23.1 °F 25.7 °F 80% 30.13 in 10.0 mi WNW 9.2 mph - N/A   Overcast
5:55 AM 30.6 °F 22.4 °F 25.5 °F 82% 30.13 in 10.0 mi NW 9.2 mph - N/A   Overcast
6:15 AM 30.0 °F 22.4 °F 25.2 °F 82% 30.13 in 10.0 mi NW 8.1 mph - N/A   Scattered Clouds
6:35 AM 30.2 °F 23.4 °F 25.2 °F 82% 30.14 in 10.0 mi NW 6.9 mph - N/A   Mostly Cloudy
6:55 AM 30.6 °F 23.1 °F 25.3 °F 81% 30.14 in 10.0 mi NW 8.1 mph - N/A   Overcast
7:15 AM 30.9 °F 23.5 °F 25.5 °F 80% 30.14 in 10.0 mi NW 8.1 mph - N/A   Overcast
7:55 AM 31.5 °F 23.5 °F 25.5 °F 79% 30.16 in 10.0 mi NW 9.2 mph - N/A   Overcast
8:15 AM 31.8 °F 24.6 °F 25.5 °F 78% 30.16 in 10.0 mi NNW 8.1 mph - N/A   Overcast
8:35 AM 32.0 °F 23.6 °F 25.7 °F 78% 30.16 in 10.0 mi NW 10.4 mph - N/A Snow Light Snow
8:55 AM 32.0 °F 24.2 °F 25.2 °F 76% 30.16 in 10.0 mi NW 9.2 mph - N/A   Overcast
9:15 AM 32.2 °F 23.8 °F 25.5 °F 76% 30.16 in 10.0 mi NW 10.4 mph - N/A   Overcast
9:55 AM 32.0 °F 22.5 °F 26.6 °F 80% 30.17 in 10.0 mi WNW 12.7 mph - N/A   Overcast
10:15 AM 32.0 °F 23.0 °F 26.8 °F 81% 30.17 in 10.0 mi WNW 11.5 mph - N/A   Overcast
10:35 AM 32.5 °F 23.7 °F 27.3 °F 81% 30.17 in 7.0 mi WNW 11.5 mph - N/A Snow Light Snow
10:55 AM 32.5 °F 23.2 °F 27.1 °F 80% 30.17 in 5.0 mi WNW 12.7 mph - N/A Snow Light Snow
11:15 AM 32.9 °F 23.2 °F 26.6 °F 78% 30.17 in 10.0 mi WNW 13.8 mph - N/A Snow Light Snow
11:35 AM 32.9 °F 23.2 °F 26.8 °F 78% 30.16 in 10.0 mi WNW 13.8 mph 17.3 mph N/A   Overcast
11:55 AM 33.4 °F 24.8 °F 26.8 °F 77% 30.16 in 7.0 mi WNW 11.5 mph - N/A Snow Light Snow
12:15 PM 34.0 °F 25.0 °F 28.0 °F 79% 30.15 in 7.0 mi WNW 12.7 mph 17.3 mph N/A Snow Light Snow
12:55 PM 32.0 °F 25.6 °F 27.9 °F 85% 30.15 in 1.5 mi WNW 6.9 mph - N/A Snow Light Snow
1:15 PM 32.2 °F 22.7 °F 27.9 °F 84% 30.15 in 4.0 mi WNW 12.7 mph - N/A Snow Light Snow
1:55 PM 32.5 °F 24.2 °F 26.1 °F 77% 30.14 in 5.0 mi NNW 10.4 mph - N/A Snow Light Snow
2:15 PM 32.0 °F 23.6 °F 27.5 °F 83% 30.15 in 4.0 mi WNW 10.4 mph - N/A Snow Light Snow
2:55 PM 32.9 °F 23.7 °F 27.1 °F 79% 30.15 in 5.0 mi NW 12.7 mph - N/A Snow Light Snow
3:15 PM 32.4 °F 23.0 °F 26.2 °F 78% 30.15 in 7.0 mi NW 12.7 mph - N/A Snow Light Snow
3:35 PM 32.9 °F 25.3 °F 27.1 °F 79% 30.15 in 10.0 mi NW 9.2 mph - N/A Snow Light Snow
4:15 PM 32.0 °F 23.0 °F 27.5 °F 83% 30.16 in 10.0 mi WNW 11.5 mph - N/A   Overcast
4:55 PM 32.4 °F 23.5 °F 25.7 °F 76% 30.16 in 10.0 mi WNW 11.5 mph 18.4 mph N/A   Overcast
5:35 PM 32.0 °F 23.0 °F 23.9 °F 72% 30.17 in 10.0 mi NW 11.5 mph - N/A   Overcast
5:55 PM 32.0 °F 24.2 °F 24.1 °F 73% 30.17 in 10.0 mi NW 9.2 mph - N/A   Overcast
6:15 PM 32.0 °F 24.2 °F 23.9 °F 72% 30.18 in 10.0 mi NW 9.2 mph - N/A   Overcast
6:35 PM 31.6 °F 24.4 °F 23.7 °F 73% 30.18 in 10.0 mi WNW 8.1 mph - N/A   Scattered Clouds
6:55 PM 31.6 °F 24.4 °F 23.2 °F 71% 30.18 in 10.0 mi WNW 8.1 mph - N/A   Clear
7:15 PM 31.1 °F 25.4 °F 23.9 °F 75% 30.18 in 10.0 mi WNW 5.8 mph - N/A   Clear
7:35 PM 30.7 °F 24.9 °F 23.9 °F 76% 30.18 in 10.0 mi West 5.8 mph - N/A   Clear
7:55 PM 30.7 °F 23.3 °F 23.9 °F 76% 30.18 in 10.0 mi WNW 8.1 mph - N/A   Clear
8:15 PM 30.6 °F 22.4 °F 23.5 °F 75% 30.18 in 10.0 mi WNW 9.2 mph - N/A   Clear
8:35 PM 30.6 °F 21.2 °F 23.2 °F 74% 30.19 in 10.0 mi WNW 11.5 mph - N/A   Clear
8:55 PM 30.2 °F 21.9 °F 23.0 °F 75% 30.19 in 10.0 mi WNW 9.2 mph - N/A   Scattered Clouds
9:15 PM 30.2 °F 22.6 °F 22.8 °F 74% 30.19 in 10.0 mi WNW 8.1 mph - N/A   Mostly Cloudy
9:35 PM 29.8 °F 21.5 °F 23.0 °F 76% 30.19 in 10.0 mi WNW 9.2 mph - N/A   Scattered Clouds
9:55 PM 29.5 °F 20.4 °F 23.0 °F 77% 30.19 in 10.0 mi WNW 10.4 mph - N/A   Clear
10:15 PM 29.3 °F 20.8 °F 23.0 °F 77% 30.19 in 10.0 mi WNW 9.2 mph - N/A   Clear
10:35 PM 29.1 °F 22.1 °F 23.4 °F 79% 30.19 in 10.0 mi WNW 6.9 mph - N/A   Clear
10:55 PM 28.9 °F 21.9 °F 23.2 °F 79% 30.19 in 10.0 mi WNW 6.9 mph - N/A   Scattered Clouds
11:15 PM 28.4 °F 19.7 °F 22.8 °F 80% 30.19 in 10.0 mi WNW 9.2 mph - N/A   Scattered Clouds
11:35 PM 27.9 °F 20.6 °F 21.9 °F 78% 30.19 in 10.0 mi NW 6.9 mph - N/A   Scattered Clouds
11:55 PM 27.5 °F 18.6 °F 21.0 °F 77% 30.19 in 10.0 mi NW 9.2 mph - N/A   Clear